[[{"header":{"parameterUnit":"m.s-1","parameterCategory":1,"la1":30.2991,"la2":30.254,"lo1":-89.0895,"lo2":-89.0444,"dy":0.0017,"dx":0.0017,"nx":28,"ny":28,"refTime":"2025-09-05T09:00:00:Z","depth":0,"parameterNumber":2,"parameterNumberName":"U-component_of_WINDS"},"data":[0,0,0,0,0,0,0,0,0,0,0,0,0,0,0,0,0,0,0,0,0,0,0,0,0,0,0,0,0,0,0,0,0,0,0,0,0,0,0,0,0,0,0,0,0,0,0,0,0,0,0,0,0,0,0,0,0,0,-0.7875,-0.7875,0,-0.7949,-0.795,-0.7951,-0.7959,-0.7958,-0.7957,-0.7956,-0.8037,-0.8039,-0.8042,0,0,0,0,0,0,0,0,0,0,0,0,0,-0.7742,-0.7745,-0.7875,-0.7875,-0.7876,-0.7949,-0.795,-0.7951,-0.7959,-0.7958,-0.7957,-0.7956,-0.8036,-0.8039,-0.8042,0,0,0,0,0,0,0,0,0,0,0,0,0,-0.7807,-0.7745,-0.7874,-0.7889,-0.7891,-0.7949,-0.795,-0.7951,-0.7959,-0.7958,-0.7957,-0.7956,-0.8035,-0.8039,-0.8043,-0.8093,0,0,-0.8056,-0.8058,0,0,0,0,0,0,0,0,-0.7803,-0.7812,-0.7886,-0.7888,-0.789,-0.7943,-0.7933,-0.7999,-0.7959,-0.7933,-0.7956,-0.7955,-0.8007,-0.8013,-0.803,-0.8096,-0.81,-0.8056,-0.8059,-0.8061,-0.8062,0,0,0,0,0,0,0,-0.7799,-0.7808,-0.7904,-0.7887,-0.789,-0.7893,-0.7901,-0.7945,-0.7976,-0.7935,-0.7936,-0.7945,-0.8008,-0.8026,-0.8032,-0.8101,-0.8056,-0.806,-0.8063,-0.8064,-0.8213,-0.8214,0,0,0,0,0,0,-0.7791,-0.7805,-0.7902,-0.7906,-0.7843,-0.7896,-0.7905,-0.7928,-0.7975,-0.7981,-0.7946,-0.7945,-0.8019,-0.8027,-0.8035,-0.8096,-0.8061,-0.8065,-0.8067,-0.8212,-0.8213,-0.8215,0,0,0,0,0,0,-0.7788,-0.7799,-0.7899,-0.7856,-0.7869,-0.79,-0.7925,-0.793,-0.7948,-0.7983,-0.7989,-0.7958,-0.8018,-0.8029,-0.8078,-0.8099,-0.8067,-0.8071,-0.821,-0.8212,-0.8214,-0.822,0,0,0,0,0,0,-0.7784,-0.7798,-0.7817,-0.7856,-0.7871,-0.794,-0.7926,-0.7932,-0.7955,-0.7954,-0.7996,-0.8002,-0.8018,-0.8072,-0.8082,-0.8105,-0.8074,-0.8208,-0.8211,-0.8213,-0.8218,-0.8222,-0.8225,0,0,0,0,0,-0.7779,-0.7816,-0.7818,-0.7829,-0.7894,-0.7941,-0.795,-0.7966,-0.7956,-0.7975,-0.7998,-0.8001,-0.8095,-0.8077,-0.8089,-0.8113,-0.8207,-0.821,-0.8213,-0.8216,-0.8221,-0.8225,0,0,0,0,0,0,-0.778,-0.7821,-0.7824,-0.7874,-0.7904,-0.7942,-0.7967,-0.7971,-0.8005,-0.8003,-0.8024,-0.8034,-0.8082,-0.8103,-0.8081,-0.8164,-0.815,-0.8156,-0.8148,-0.8153,-0.8157,-0.8151,-0.8078,0,0,0,0,0,-0.7785,-0.7818,-0.7854,-0.7895,-0.791,-0.7936,-0.7957,-0.7967,-0.7999,-0.8012,-0.8038,-0.8071,-0.8108,-0.8132,-0.8168,-0.8221,-0.8231,-0.8243,-0.8247,-0.825,-0.8255,-0.8285,-0.8291,-0.8225,-0.8225,-0.8225,0,0,-0.7798,-0.7825,-0.7845,-0.7896,-0.792,-0.7955,-0.7946,-0.7984,-0.801,-0.8018,-0.8066,-0.8087,-0.8124,-0.8176,-0.82,-0.8194,-0.8275,-0.8254,-0.8256,-0.8259,-0.8289,-0.8295,-0.8301,-0.8227,-0.8227,-0.8226,0,0,-0.7838,-0.7862,-0.7899,-0.7923,-0.7959,-0.7976,-0.7985,-0.8023,-0.8037,-0.8085,-0.8092,-0.8125,-0.8188,-0.8214,-0.8236,-0.8287,-0.8291,-0.8298,-0.8317,-0.8346,-0.8352,-0.8356,-0.8375,-0.8381,-0.8303,-0.8303,-0.8303,0,-0.785,-0.7901,-0.7917,-0.7954,-0.7977,-0.7985,-0.8023,-0.8046,-0.8093,-0.8109,-0.8102,-0.8181,-0.8207,-0.8265,-0.8277,-0.8294,-0.8306,-0.8293,-0.8349,-0.8354,-0.8359,-0.8377,-0.8384,-0.8303,-0.8303,-0.8303,-0.8303,0,-0.7914,-0.795,-0.7975,-0.8019,-0.8045,-0.8082,-0.8105,-0.8129,-0.8137,-0.8155,-0.8205,-0.8236,-0.8278,-0.8293,-0.8302,-0.8353,-0.8348,-0.8345,-0.8332,-0.8366,-0.8383,-0.839,-0.8304,-0.8304,-0.8304,-0.8304,0,0,-0.7957,-0.8008,-0.8017,-0.8037,-0.8078,-0.8107,-0.8146,-0.8186,-0.8206,-0.8239,-0.8272,-0.8325,-0.8323,-0.8347,-0.8359,-0.8385,-0.8424,-0.8379,-0.838,-0.8386,-0.8483,-0.8485,-0.8493,-0.8427,-0.8428,-0.8429,-0.848,0,-0.8002,-0.8069,-0.8084,-0.8142,-0.8176,-0.8184,-0.8218,-0.8247,-0.8265,-0.8298,-0.8319,-0.8356,-0.8349,-0.8364,-0.839,-0.8414,-0.8444,-0.841,-0.8459,-0.8461,-0.8449,-0.8502,-0.8504,-0.855,-0.8486,-0.8488,-0.8488,0,-0.8064,-0.8096,-0.8157,-0.8194,-0.8208,-0.8238,-0.8277,-0.8307,-0.8341,-0.8353,-0.838,-0.839,-0.8431,-0.8416,-0.8474,-0.8451,-0.8472,-0.8487,-0.8489,-0.8495,-0.8477,-0.8509,-0.8565,-0.8572,-0.8499,-0.8498,-0.8498,0,-0.8089,-0.8148,-0.8192,-0.8209,-0.8253,-0.8274,-0.8293,-0.8326,-0.8349,-0.8383,-0.8399,-0.8438,-0.846,-0.849,-0.8511,-0.8497,-0.8567,-0.8554,-0.8579,-0.8579,-0.8594,-0.8593,-0.8655,-0.8607,-0.8607,-0.8607,-0.8606,0,-0.8138,-0.8175,-0.8204,-0.8231,-0.8273,-0.8292,-0.8333,-0.8353,-0.8382,-0.8414,-0.8424,-0.8455,-0.8479,-0.8513,-0.853,-0.8576,-0.8586,-0.8597,-0.8601,-0.8596,-0.8595,-0.8611,-0.8608,-0.8608,-0.8608,-0.8608,-0.8607,0,-0.8174,-0.8194,-0.8243,-0.828,-0.829,-0.832,-0.8352,-0.838,-0.8398,-0.8439,-0.845,-0.8479,-0.852,-0.8543,-0.8595,-0.8606,-0.8657,-0.8659,-0.8645,-0.8647,-0.8671,-0.8669,-0.8746,-0.8757,-0.8701,-0.8702,-0.8702,0,-0.8204,-0.8232,-0.8272,-0.8294,-0.8313,-0.8348,-0.8372,-0.8391,-0.8416,-0.8457,-0.8479,-0.852,-0.8554,-0.8619,-0.8646,-0.8686,-0.8689,-0.8714,-0.8695,-0.869,-0.869,-0.8688,-0.8692,-0.8717,-0.8717,-0.8718,-0.8718,0,-0.8255,-0.8264,-0.8296,-0.8333,-0.8361,-0.8391,-0.8421,-0.8439,-0.8464,-0.8491,-0.8532,-0.8558,-0.861,-0.8651,-0.8693,-0.8715,-0.8721,-0.8723,-0.8732,-0.8727,-0.8718,-0.8724,-0.8654,-0.8722,-0.8721,-0.8721,-0.8721,-0.8721,-0.8289,-0.8315,-0.8347,-0.8383,-0.8408,-0.8436,-0.8463,-0.8485,-0.8519,-0.8562,-0.8572,-0.8615,-0.865,-0.8706,-0.8729,-0.8764,-0.876,-0.8772,-0.8775,-0.8777,-0.8778,-0.8712,-0.8772,-0.8772,-0.8772,-0.8772,-0.8772,0,-0.8341,-0.8362,-0.8395,-0.8436,-0.8466,-0.8467,-0.8501,-0.8526,-0.8563,-0.8594,-0.8627,-0.8674,-0.8714,-0.8744,-0.8785,-0.8808,-0.8812,-0.8818,-0.8817,-0.8822,-0.878,-0.8769,-0.8814,-0.8814,-0.8814,-0.8814,-0.8814,-0.8814,-0.8371,-0.8415,-0.8428,-0.8484,-0.8506,-0.8547,-0.8566,-0.8592,-0.8617,-0.8669,-0.8702,-0.8721,-0.8752,-0.8795,-0.8832,-0.884,-0.8855,-0.8861,-0.887,-0.883,-0.8825,-0.8821,-0.881,-0.8864,-0.8864,-0.8909,-0.891,-0.891]},{"header":{"parameterUnit":"m.s-1","parameterCategory":1,"la1":30.2991,"la2":30.254,"lo1":-89.0895,"lo2":-89.0444,"dy":0.0017,"dx":0.0017,"nx":28,"ny":28,"refTime":"2025-09-05T09:00:00:Z","depth":0,"parameterNumber":3,"parameterNumberName":"V-component_of_WINDS"},"data":[0,0,0,0,0,0,0,0,0,0,0,0,0,0,0,0,0,0,0,0,0,0,0,0,0,0,0,0,0,0,0,0,0,0,0,0,0,0,0,0,0,0,0,0,0,0,0,0,0,0,0,0,0,0,0,0,0,0,0.4181,0.4181,0,0.4177,0.4177,0.4177,0.4201,0.4202,0.4203,0.4203,0.4197,0.4196,0.4196,0,0,0,0,0,0,0,0,0,0,0,0,0,0.421,0.421,0.4181,0.4181,0.4181,0.4177,0.4177,0.4177,0.4201,0.4202,0.4203,0.4204,0.4197,0.4196,0.4195,0,0,0,0,0,0,0,0,0,0,0,0,0,0.4201,0.4209,0.4181,0.4193,0.4194,0.4177,0.4177,0.4176,0.4201,0.4202,0.4203,0.4204,0.4198,0.4197,0.4195,0.4166,0,0,0.4191,0.4191,0,0,0,0,0,0,0,0,0.4201,0.42,0.4191,0.4192,0.4193,0.4191,0.4185,0.4173,0.4201,0.4198,0.4203,0.4205,0.4194,0.4193,0.419,0.4166,0.4166,0.4191,0.4191,0.419,0.419,0,0,0,0,0,0,0,0.4202,0.42,0.4179,0.4191,0.4192,0.4198,0.4198,0.4182,0.419,0.4199,0.42,0.42,0.4195,0.4191,0.419,0.4165,0.4191,0.419,0.419,0.4189,0.4117,0.4116,0,0,0,0,0,0,0.4201,0.42,0.418,0.4179,0.42,0.4197,0.4196,0.419,0.419,0.4191,0.4199,0.4201,0.4193,0.4191,0.419,0.4155,0.419,0.4189,0.4188,0.4118,0.4117,0.4115,0,0,0,0,0,0,0.4202,0.4199,0.418,0.419,0.4188,0.4195,0.4188,0.419,0.4186,0.419,0.4192,0.4194,0.4193,0.4192,0.4172,0.4155,0.4188,0.4187,0.412,0.4118,0.4116,0.4086,0,0,0,0,0,0,0.4202,0.4199,0.4188,0.419,0.4188,0.4162,0.4187,0.4189,0.4184,0.4187,0.4186,0.4187,0.4194,0.4174,0.4171,0.4154,0.4186,0.4121,0.4119,0.4117,0.4089,0.4084,0.4079,0,0,0,0,0,0.4203,0.418,0.4188,0.4185,0.4174,0.4161,0.416,0.4169,0.4183,0.4172,0.4174,0.4187,0.4158,0.4171,0.4168,0.4151,0.4122,0.4119,0.4117,0.4091,0.4085,0.408,0,0,0,0,0,0,0.4175,0.418,0.4189,0.4165,0.4163,0.4165,0.4152,0.4162,0.4155,0.4158,0.417,0.4169,0.4147,0.4148,0.4162,0.4123,0.4142,0.4139,0.4124,0.4118,0.4113,0.4113,0.4185,0,0,0,0,0,0.4167,0.4156,0.4161,0.4139,0.4138,0.4145,0.4139,0.4147,0.4144,0.4143,0.4145,0.4141,0.4132,0.4125,0.4116,0.4089,0.4089,0.4076,0.4071,0.4068,0.4064,0.405,0.4044,0.4107,0.4107,0.4107,0,0,0.4148,0.4149,0.4142,0.4134,0.4133,0.4121,0.4144,0.413,0.4121,0.4141,0.4123,0.4124,0.4121,0.4097,0.4087,0.4097,0.4047,0.4064,0.4061,0.406,0.4046,0.404,0.4035,0.4105,0.4105,0.4106,0,0,0.4108,0.4108,0.4091,0.4089,0.4087,0.4092,0.4088,0.4089,0.4091,0.4073,0.4087,0.4077,0.406,0.4057,0.4053,0.4013,0.4024,0.401,0.3985,0.3971,0.3966,0.3962,0.3947,0.3941,0.4007,0.4007,0.4007,0,0.4085,0.4069,0.408,0.4066,0.4061,0.4079,0.4061,0.4059,0.4054,0.4051,0.4062,0.4041,0.404,0.4016,0.4006,0.4003,0.3998,0.4009,0.3966,0.3962,0.3958,0.3944,0.3938,0.4005,0.4005,0.4005,0.4005,0,0.404,0.4028,0.4014,0.401,0.4004,0.3987,0.3996,0.3989,0.3997,0.4001,0.3982,0.3982,0.3973,0.3968,0.3976,0.3945,0.3951,0.3964,0.3983,0.395,0.3937,0.3931,0.4002,0.4003,0.4003,0.4004,0,0,0.3982,0.3984,0.3979,0.3977,0.3976,0.3967,0.3952,0.3944,0.3937,0.3934,0.3921,0.3906,0.3918,0.3914,0.3921,0.3909,0.3876,0.3923,0.3923,0.3914,0.3842,0.3832,0.3826,0.3884,0.3883,0.3882,0.3842,0,0.3943,0.3917,0.3926,0.3899,0.3888,0.3906,0.3892,0.389,0.3893,0.3884,0.3888,0.3877,0.3894,0.3891,0.388,0.3883,0.3862,0.3886,0.3871,0.3871,0.3871,0.3819,0.3808,0.377,0.3837,0.3836,0.3836,0,0.3893,0.3888,0.386,0.3861,0.3857,0.3845,0.3838,0.383,0.3828,0.3831,0.3826,0.3837,0.3821,0.3841,0.382,0.3836,0.3831,0.3831,0.383,0.3828,0.3851,0.3815,0.3759,0.3753,0.3828,0.3829,0.3829,0,0.3853,0.3838,0.382,0.3818,0.3819,0.381,0.381,0.381,0.3804,0.3799,0.3795,0.3788,0.3783,0.3777,0.3785,0.3799,0.3762,0.3783,0.3764,0.3764,0.3755,0.3755,0.3696,0.3753,0.3753,0.3753,0.3753,0,0.3807,0.3789,0.3802,0.379,0.3771,0.3782,0.3762,0.3764,0.3763,0.3752,0.3767,0.3756,0.3767,0.3757,0.3764,0.3745,0.3743,0.3745,0.3746,0.3743,0.3742,0.3739,0.3741,0.3751,0.3752,0.3752,0.3752,0,0.3758,0.3766,0.3747,0.375,0.3751,0.3736,0.3738,0.3728,0.3732,0.3718,0.3715,0.3722,0.3711,0.3719,0.3708,0.3712,0.3687,0.3693,0.3688,0.3689,0.3669,0.3671,0.3605,0.3597,0.3659,0.3659,0.3658,0,0.3729,0.3715,0.3717,0.3711,0.371,0.37,0.3695,0.3706,0.37,0.3697,0.3686,0.3677,0.367,0.3652,0.3655,0.3647,0.3652,0.363,0.3651,0.3648,0.3651,0.3652,0.365,0.3625,0.3624,0.3624,0.3623,0,0.3675,0.3679,0.3671,0.3665,0.3658,0.3654,0.365,0.3644,0.3655,0.3648,0.3637,0.3631,0.3621,0.3611,0.3604,0.3604,0.3615,0.3617,0.3612,0.3608,0.3605,0.3606,0.3675,0.3618,0.3619,0.3619,0.3619,0.3619,0.3634,0.3623,0.3622,0.3613,0.3612,0.3608,0.3598,0.3602,0.3593,0.3585,0.3593,0.358,0.3578,0.357,0.3569,0.3559,0.3568,0.3561,0.3559,0.3557,0.3554,0.3608,0.3557,0.3558,0.3558,0.3558,0.3558,0,0.358,0.3581,0.3572,0.3567,0.356,0.3572,0.3569,0.3562,0.355,0.3548,0.3541,0.3529,0.3519,0.3523,0.3514,0.3506,0.3511,0.3503,0.3503,0.3503,0.3546,0.3551,0.3499,0.3499,0.3499,0.3499,0.3499,0.3499,0.3551,0.3533,0.3538,0.3519,0.352,0.3507,0.3504,0.3501,0.3499,0.3485,0.3478,0.348,0.348,0.3472,0.3464,0.3465,0.3461,0.3451,0.3454,0.3494,0.35,0.3506,0.351,0.3451,0.3451,0.3412,0.3412,0.3412]}]]